Tracking 30995 objects as of 6-Jul-2025
HD Live streaming from Space Station
objects crossing your sky now

CZ-2D R/B

Track CZ-2D R/B now!
10-day predictions


NORAD ID: 36597
Int'l Code: 2010-027B
Perigee: 534.3 km
Apogee: 608.9 km
Inclination: 98.0 °
Period: 95.9 minutes
Semi major axis: 6942 km
RCS: 8.7925 m2 (large)
Launch date: June 15, 2010
Source: People's Republic of China (PRC)
Launch site: Jiuquan Satellite Launch Center, China (JSC)

Note: This is a ROCKET BODY
Your satellite tracking list
Your tracking list is empty




NASA's NSSDC Master Catalog

Two Line Element Set (TLE):
1 36597U 10027B   25187.61351453  .00001225  00000-0  98899-4 0  9998
2 36597  98.0209 201.4305 0053664 359.8984   0.2218 15.00791424819010
Source of the keplerian elements: AFSPC